Regional Weather Roundup
Issued by NWS

Home | Current Version | Previous Version | Text Only | Print | Product List | Glossary Off
Versions: 1 2 3 4 5 6 7 8 9 10 11 12 13 14 15 16 17 18 19 20 21 22 23 24 25 26 27 28 29 30 31 32 33 34 35 36 37 38 39 40 41 42 43 44 45 46 47 48 49 50

000
ASUS43 KMPX 092101
RWRMN
WEATHER ROUNDUP FOR MINNESOTA
NATIONAL WEATHER SERVICE TWIN CITIES/CHANHASSEN MN
300 PM CST FRI DEC 09 2016


NOTE: "FAIR" INDICATES FEW OR NO CLOUDS BELOW 12,000 FEET WITH NO
SIGNIFICANT WEATHER AND/OR OBSTRUCTIONS TO VISIBILITY. N/A MEANS
CURRENT SKY AND/OR WEATHER CONDITIONS ARE NOT AVAILABLE.

MNZ060>063-068>070-092200-
   Twin Cities Metro

CITY           SKY/WX    TMP DP  RH WIND       PRES   REMARKS
TWIN CITIES    PTSUNNY   18   7  62 W8        30.50S WCI   8
ST PAUL        PTSUNNY   18   7  62 W12       30.52R WCI   5
CRYSTAL        CLOUDY    17   6  62 NW10      30.49S WCI   5
BLAINE         FLURRIES  19  10  68 W10       30.48S WCI   8
LAKEVILLE      FLURRIES  16  10  79 W9        30.50R WCI   4
EDEN PRAIRIE   CLOUDY    17   7  64 W10       30.50R WCI   5
SOUTH ST PAUL  MOSUNNY   19   8  62 W9        30.50R WCI   8
LAKE ELMO      PTSUNNY   19  10  68 W9        30.49S WCI   9
$$
MNZ001>005-007-008-013>017-022>024-027-028-092200-
   Northwest Minnesota

CITY           SKY/WX    TMP DP  RH WIND       PRES   REMARKS
BEMIDJI        CLOUDY     6  -3  66 W13       30.45S WCI -10
HALLOCK        CLOUDY     1  -6  71 NW7       30.55S WCI -11
ROSEAU         CLOUDY     1  -6  71 W9        30.51S WCI -14
WARROAD        CLOUDY     3  -4  72 W7        30.50S HAZE    WCI  -9
THIEF RVR FALL FLURRIES   4  -2  76 W10       30.52S WCI -11
CROOKSTON      CLOUDY     1  -2  85 NW10      30.56S WCI -14
FOSSTON        LGT SNOW   3  -2  78 NW7       30.49S WCI  -9
DETROIT LAKES  PTSUNNY    5   0  78 NW9       30.50R WCI  -9
MOORHEAD       MOSUNNY    3  -2  78 N8        30.56S WCI -10
PARK RAPIDS    CLOUDY     8  -3  61 W9        30.45R WCI  -5
$$
MNZ006-009>011-018-025>026-092200-
   North Central Minnesota

CITY           SKY/WX    TMP DP  RH WIND       PRES   REMARKS
BAUDETTE       CLEAR      3  -7  63 W10       30.47R WCI -12
FLAG ISLAND    MOCLDY     5   0  78 W9        30.47R HAZE    WCI  -9
INTL FALLS     CLOUDY     5  -3  69 W7        30.45S HAZE    WCI  -7
WASKISH        CLOUDY     7   0  72 NW10      30.47R WCI  -8
BIG FORK       LGT SNOW   9   1  72 CALM      30.44S
LONGVILLE      CLOUDY     9   0  66 W8        30.45S WCI  -4
GRAND RAPIDS   FLURRIES   8  -1  66 NW12      30.46S WCI  -7
CRANE LAKE     CLOUDY     5  -4  66 W5        30.47R WCI  -4
ORR            CLOUDY     3  -6  66 CALM      30.41S
COOK           CLOUDY     5  -2  72 W8        30.44S WCI  -8
$$
MNZ012-019>021-037-092200-
   Northeast Minnesota

CITY           SKY/WX    TMP DP  RH WIND       PRES   REMARKS
DULUTH         FLURRIES   9   1  70 NW10      30.42R WCI  -5
ELY            CLOUDY     5   0  78 W8        30.41R WCI  -8
HIBBING        LGT SNOW   5  -2  72 NW10      30.43S WCI -10
EVELETH        MOCLDY     7  -3  64 W9        30.44S WCI  -6
DULUTH HARBOR  CLOUDY    14   3  62 NW16      30.50S WCI  -2
TWO HARBORS    PTCLDY    10   0  61 W9G18     30.43R WCI  -2
SILVER BAY     MOCLDY    10   0  61 CALM      30.42R
GRAND MARAIS     N/A     18   7  62 NW3       30.42S
G MARAIS ARPRT CLOUDY     9   1  72 W6        30.32R WCI  -1
$$
MNZ029>031-032-039>041-046>048-054>057-064-092200-
   West Central Minnesota

CITY           SKY/WX    TMP DP  RH WIND       PRES   REMARKS
FERGUS FALLS   CLOUDY     5   0  78 NW10      30.57S WCI -10
WHEATON        CLOUDY    10   3  72 NW9       30.56S HAZE    WCI  -2
MORRIS         MOSUNNY    7   0  72 NW10      30.51S WCI  -8
ALEXANDRIA     LGT SNOW   5  -2  72 NW10      30.48S WCI -10
ELBOW LAKE     CLOUDY     6   0  78 W9        30.51F HAZE    WCI  -8
WADENA         PTSUNNY    7  -2  66 W5        30.46S WCI  -2
GLENWOOD       MOSUNNY    5   0  78 NW8       30.49S WCI  -8
APPLETON       MOSUNNY   10   1  67 NW9       30.53S WCI  -2
BENSON         PTSUNNY    9   0  66 N12       30.52S WCI  -6
ORTONVILLE     PTSUNNY    7  -2  66 N8        30.53S WCI  -6
MADISON        PTSUNNY   12   1  62 NW9       30.53S WCI   0
WILLMAR        PTSUNNY   12   7  79 CALM      30.51F
$$
MNZ033>034-036-042>043-049>051-058-059-092200-
   Central Minnesota

CITY           SKY/WX    TMP DP  RH WIND       PRES   REMARKS
ST CLOUD       PTSUNNY   13   4  67 W10       30.49S WCI   0
PAYNESVILLE    SUNNY     11   4  71 NW8       30.49F WCI   0
AITKIN         CLOUDY    12   0  57 W6        30.45S WCI   3
PINE RIVER     CLOUDY     9   1  72 NW8       30.48S WCI  -4
BRAINERD       CLOUDY    10   1  67 NW7       30.46F WCI  -1
STAPLES        CLOUDY     9   0  66 W9        30.47R WCI  -5
LONG PRAIRIE   CLOUDY     9   1  72 SW8       30.48S WCI  -4
LITTLE FALLS   CLOUDY    12   1  62 W6        30.48S WCI   3
LITCHFIELD     SUNNY     12   5  73 W7        30.50S WCI   2
BUFFALO        MOSUNNY   14   6  68 W7        30.51S WCI   4
MAPLE LAKE     PTSUNNY   16   7  69 W8        30.50S WCI   5
HUTCHINSON     MOSUNNY   14   7  72 W10       30.51S WCI   2
$$
MNZ037-044-045-052-053-092200-
   East Central Minnesota

CITY           SKY/WX    TMP DP  RH WIND       PRES   REMARKS
PRINCETON      CLOUDY    16   7  67 W7        30.48S WCI   6
MORA           PTSUNNY   14   5  67 W7        30.49R WCI   4
CAMBRIDGE      FLURRIES  18   7  62 W8        30.46S WCI   7
RUSH CITY      CLOUDY    16   7  67 W8        30.48S WCI   5
MOOSE LAKE     CLOUDY    14   5  67 NW6       30.45R WCI   5
HINCKLEY       CLOUDY    18   5  57 W7        30.47R WCI   8
CLOQUET        LGT SNOW  10   1  67 W9        30.43S WCI  -2
MCGREGOR       CLOUDY    12   5  73 NW9       30.46S WCI   0
$$
MNZ071>073-080-081-089-090-097-098-092200-
   Southwest Minnesota

CITY           SKY/WX    TMP DP  RH WIND       PRES   REMARKS
MONTEVIDEO     CLOUDY    12   3  67 N7        30.54S WCI   2
GRANITE FALLS  CLOUDY    13   4  68 W9        30.54S WCI   0
CANBY          SUNNY     11   1  65 W7        30.53S WCI   0
MARSHALL       SUNNY     11   2  67 NW9       30.51F WCI  -2
REDWOOD FALLS  CLOUDY    12   3  67 VRB7      30.52S WCI   1
OLIVIA         MOSUNNY   12   7  79 NW7       30.51S WCI   2
PIPESTONE      MOSUNNY   12   5  73 NW6       30.45S WCI   3
WINDOM         CLOUDY    16   7  67 CALM      30.47F
WORTHINGTON    CLOUDY    14   6  70 W6        30.47F WCI   5
JACKSON        CLOUDY    14   5  67 W5        30.48S WCI   6
TRACY          CLOUDY    13   6  73 NW5       30.49F WCI   5
SLAYTON        CLOUDY    13   6  74 W5        30.46F WCI   5
$$
MNZ065>067-074>077-082>085-091>093-092200-
   South Central Minnesota

CITY           SKY/WX    TMP DP  RH WIND       PRES   REMARKS
MANKATO        MOSUNNY   15   8  73 W7        30.51S WCI   5
NEW ULM        FLURRIES  12   7  79 W7        30.52S WCI   2
ST JAMES       PTSUNNY   14   7  73 W7        30.52F WCI   4
FAIRMONT       CLOUDY    16   8  71 NW8       30.51S WCI   5
GLENCOE        PTSUNNY   16  10  77 NW9       30.50S WCI   4
OWATONNA       PTSUNNY   18  10  73 W12       30.49R WCI   5
WASECA         FLURRIES  18  12  79 W12       30.52R WCI   5
ALBERT LEA     MOSUNNY   19  12  73 W6        30.49R WCI  11
$$
MNZ078>079-086>088-094>096-092200-
   Southeast Minnesota

CITY           SKY/WX    TMP DP  RH WIND       PRES   REMARKS
ROCHESTER      MOSUNNY   15  10  80 W7        30.47S WCI   5
RED WING       MOSUNNY   19   9  63 W9        30.49S WCI   9
STANTON        PTSUNNY   18  10  72 W9        30.50R WCI   6
DODGE CENTER   MOSUNNY   16  10  79 W9        30.47R WCI   4
WINONA           N/A     21  12  68 NW5       30.52S WCI  15
AUSTIN         PTSUNNY   18  10  73 W6        30.48S WCI   9
PRESTON        SUNNY     15   9  75 W6        30.48S WCI   7
$$
ABBREVIATIONS USED IN REMARKS
   TC - TEMPERATURES IN CELSIUS
  WCI - WIND CHILL INDEX
   HX - HEAT INDEX
  VSB - VISIBILITY
$$




USA.gov is the U.S. government's official web portal to all federal, state and local government web resources and services.